Overview Statistics Trail Chart Weather Telemetry Raw packets
 

This is the latest recevied weather packets stored in our database for station/object K6POO-1. If no packets are shown the sender has not sent any weather packets the latest 10 day(s).

<< 43 44 45 46 47 48 49 >>
Time Temp. Humidity Pressure Rain* Wind** Luminosity Snow
1788391932 19.44° C 70% 1016.9 hPa 0 mm - 382 W/m² -
1788391631 20° C 69% 1016.7 hPa 0 mm - 404 W/m² -
1788391331 20° C 69% 1016.8 hPa 0 mm - 430 W/m² -
1788391025 19.44° C 71% 1016.8 hPa 0 mm - 448 W/m² -
1788390720 20° C 68% 1016.7 hPa 0 mm - 474 W/m² -
1788390416 19.44° C 69% 1017.1 hPa 0 mm - 485 W/m² -
1788390114 20° C 67% 1017.1 hPa 0 mm - 509 W/m² -
1788389809 20° C 66% 1017.2 hPa 0 mm - 529 W/m² -
1788389509 20° C 68% 1017.1 hPa 0 mm - 543 W/m² -
1788389207 20° C 67% 1017.3 hPa 0 mm - 562 W/m² -
1788388898 20° C 68% 1017.3 hPa 0 mm - 576 W/m² -
1788388594 20° C 68% 1017.3 hPa 0 mm - 592 W/m² -
1788388292 20° C 68% 1017.4 hPa 0 mm - 609 W/m² -
1788387986 20° C 68% 1017.3 hPa 0 mm - 628 W/m² -
1788387689 20° C 68% 1017.5 hPa 0 mm - 642 W/m² -
1788387379 20° C 69% 1017.5 hPa 0 mm - 640 W/m² -
1788387074 20.56° C 67% 1017.6 hPa 0 mm - 669 W/m² -
1788386770 20° C 67% 1017.5 hPa 0 mm - 691 W/m² -
1788386464 20° C 68% 1017.6 hPa 0 mm - 712 W/m² -
1788386161 20° C 69% 1017.7 hPa 0 mm - 737 W/m² -
1788385855 20.56° C 67% 1017.7 hPa 0 mm - 741 W/m² -
1788385550 20° C 67% 1017.8 hPa 0 mm - 761 W/m² -
1788385249 20° C 67% 1017.8 hPa 0 mm - 744 W/m² -
1788384945 20.56° C 68% 1017.8 hPa 0 mm - 769 W/m² -
1788384644 20.56° C 68% 1017.9 hPa 0 mm - 790 W/m² -

* Rain latest hour (hover to see other rain measurements)
** Current wind speed in m/s (hover to see current wind gust speed)